Regional Weather Roundup
Issued by NWS Kansas City/Pleasant Hill, MO

Home | Current Version | Previous Version | Graphics & Text | Print | Product List | Glossary Off
Versions: 1 2 3 4 5 6 7 8 9 10 11 12 13 14 15 16 17 18 19 20 21 22 23 24 25 26 27 28 29 30 31 32 33 34 35 36 37 38 39 40 41 42 43 44 45 46 47 48 49 50

000
ASUS43 KEAX 212210
RWREAX

WEATHER ROUNDUP FOR EASTERN KANSAS AND NORTHWEST MISSOURI
NATIONAL WEATHER SERVICE KANSAS CITY/PLEASANT HILL MO
500 PM CDT MON MAY 21 2018

KSZ040-057-103>105-MOZ028-029-037-043-212300-
...KANSAS CITY METROPOLITAN AREA...

CITY           SKY/WX    TMP DP  RH WIND       PRES   REMARKS
K.C. INTL      PTSUNNY   71  58  63 W3        30.02F
K.C. DOWNTOWN  SUNNY     72  58  61 NW9       30.00F
LEES SUMMIT    SUNNY     74  59  59 W7        30.01F
OLATHE - IXD   SUNNY     74  59  59 W3        30.01F
OLATHE - OJC   SUNNY     72  58  61 W7        30.01F
LAWRENCE       SUNNY     75  60  59 NW6       30.00F

$$

MOZ001>008-011>017-020>025-030>033-038>040-044>046-053-054-212300-
...NORTHERN AND CENTRAL MISSOURI...

CITY           SKY/WX    TMP DP  RH WIND       PRES   REMARKS
ST. JOSEPH     SUNNY     72  59  63 CALM      29.99F
MOSBY          MOCLDY    68  55  64 NW8G16    30.02F
WARRENSBURG    SUNNY     73  57  56 W7        30.00F
WHITEMAN AFB   NOT AVBL
CLINTON        MOSUNNY   75  63  64 W5        30.01F
SEDALIA        PTSUNNY   75  65  70 MISG      30.01F
WARSAW         NOT AVBL
CHILLICOTHE      N/A     72  61  68 VRB6      30.01F
KIRKSVILLE     MOSUNNY   74  62  66 W7        29.99F

$$

MOZ041-047>049-056>058-063>065-088>090-097-212300-
...EASTERN AND SOUTHERN MISSOURI...

CITY           SKY/WX    TMP DP  RH WIND       PRES   REMARKS
ST. LOUIS INTL CLOUDY    80  69  69 CALM      29.98F
SPIRIT OF STL  CLOUDY    80  69  69 CALM      29.96F
COLUMBIA       MOSUNNY   79  65  62 W13       29.99F
JEFFERSON CITY MOSUNNY   79  64  60 W7        29.97F
ROLLA          MOSUNNY   78  66  66 NW5       30.00F
OSAGE BEACH    SUNNY     78  67  68 NW6       30.00F
SPRINGFIELD    MOSUNNY   80  64  58 NW5       30.00F
BRANSON        PTSUNNY   82  64  54 NW8       30.01F
JOPLIN         SUNNY     79  61  53 NW6       30.01F
WEST PLAINS    MOSUNNY   82  67  60 CALM      30.00F

$$

IAZ060-094-KSZ022-034>040-054-083-096-NEZ052-066-093-212300-
...KANSAS...SOUTHEAST NEBRASKA AND IOWA...

CITY           SKY/WX    TMP DP  RH WIND       PRES   REMARKS
TOPEKA         SUNNY     77  60  55 NW8       29.99F
MANHATTAN      SUNNY     78  58  49 MISG      29.98F
EMPORIA        SUNNY     76  60  57 NW3       30.00F
CHANUTE        SUNNY     77  61  57 VRB5      30.01F
WICHITA        MOSUNNY   79  58  48 SW10      29.99F
OMAHA          MOSUNNY   73  56  54 VRB3      29.97F
LINCOLN        SUNNY     76  54  46 SW7       29.98F
FALLS CITY     SUNNY     77  55  46 W7        29.97F
LAMONI         MOSUNNY   72  61  68 W9        29.99F
DES MOINES     MOSUNNY   74  62  66 CALM      29.97F

$$




USA.gov is the U.S. government's official web portal to all federal, state and local government web resources and services.